EW3506 Weather Reports


time (UTC)temp
C
wind
direction
speed
KPH
gust
KPH
rain 1hr
cm
rain 24hr
cm
rain mn
cm
humidity
%
barometer
mb
20260504081510 7 360 0.0 3.2 0.00 0.25 0.00 87 1001.6
20260504044536 12 360 0.0 4.8 0.00 0.25 0.25 71 1003.4
20260504043037 12 360 0.0 3.2 0.00 0.25 0.25 70 1003.4
20260504041532 12 360 0.0 3.2 0.00 0.25 0.25 69 1003.3
20260504040031 13 360 0.0 3.2 0.00 0.25 0.25 69 1003.3
20260504034530 13 360 0.0 3.2 0.00 0.25 0.25 66 1003.2
20260504033030 13 360 0.0 3.2 0.00 0.25 0.25 65 1003.4
20260504031531 14 360 0.0 3.2 0.00 0.25 0.25 64 1003.5
20260504030029 14 360 1.6 4.8 0.00 0.25 0.25 64 1003.6
20260504024535 14 360 0.0 3.2 0.00 0.25 0.25 63 1003.7
20260504023028 15 360 1.6 3.2 0.00 0.25 0.25 63 1003.6
20260504021528 15 360 1.6 4.8 0.00 0.25 0.25 61 1003.6
20260504020027 15 360 1.6 6.4 0.00 0.25 0.25 61 1003.5
20260504014526 16 360 1.6 8.0 0.00 0.25 0.25 60 1003.2
20260504013034 16 360 1.6 8.0 0.00 0.25 0.25 59 1003.2
20260504011525 16 360 0.0 8.0 0.00 0.25 0.25 58 1003.0
20260504010024 17 360 0.0 6.4 0.00 0.25 0.25 55 1003.0
20260504004525 17 360 1.6 4.8 0.00 0.25 0.25 52 1003.0
20260504003036 18 360 1.6 8.0 0.00 0.25 0.25 50 1003.0
20260504001522 19 123 1.6 11.3 0.00 0.25 0.25 48 1003.0
20260504000021 20 171 3.2 11.3 0.00 0.25 0.25 47 1003.1
20260503234520 20 117 3.2 14.5 0.00 0.25 0.25 46 1003.0
20260503233021 20 164 4.8 17.7 0.00 0.25 0.25 45 1003.2
20260503231518 20 163 6.4 17.7 0.00 0.25 0.25 44 1003.2
20260503230016 20 105 4.8 20.9 0.00 0.25 0.25 43 1003.3
20260503224526 20 178 9.7 22.5 0.00 0.25 0.25 44 1003.4
20260503223014 20 194 6.4 19.3 0.00 0.25 0.25 45 1003.5
20260503221512 20 172 9.7 25.7 0.00 0.25 0.25 43 1003.5
20260503220018 20 135 8.0 22.5 0.00 0.25 0.25 46 1003.7
20260503214510 20 133 4.8 16.1 0.00 0.25 0.25 46 1003.7
20260503213006 20 142 9.7 16.1 0.00 0.25 0.25 45 1003.9
20260503211504 19 178 8.0 19.3 0.00 0.25 0.25 44 1004.2
20260503210059 19 113 8.0 22.5 0.00 0.25 0.25 45 1004.5
20260503204557 18 360 9.7 33.8 0.00 0.25 0.25 47 1004.8
20260503203056 17 119 8.0 19.3 0.00 0.25 0.25 49 1005.1
20260503201551 17 108 9.7 27.4 0.00 0.25 0.25 45 1005.5
20260503200049 17 175 14.5 27.4 0.00 0.25 0.25 44 1005.7
20260503194550 17 115 11.3 22.5 0.00 0.25 0.25 48 1005.9
20260503193045 17 96 12.9 24.1 0.00 0.25 0.25 50 1006.0
20260503191540 16 360 9.7 22.5 0.00 0.25 0.25 55 1006.3
20260503190040 16 360 8.0 20.9 0.00 0.25 0.25 59 1006.4
20260503184544 15 79 6.4 17.7 0.00 0.25 0.25 65 1006.7
20260503183028 14 96 4.8 17.7 0.00 0.25 0.25 66 1006.9
20260503181523 13 98 6.4 16.1 0.00 0.25 0.25 69 1007.3
20260503180020 12 103 4.8 17.7 0.00 0.25 0.25 72 1007.6
20260503174519 12 59 3.2 12.9 0.03 0.25 0.25 76 1008.0
20260503173014 11 92 3.2 14.5 0.03 0.25 0.25 77 1008.3
20260503171511 9 360 1.6 6.4 0.08 0.25 0.25 87 1009.2